sat.trackr.live / text

‹ back to catalog

STARLINK-31164

NORAD 58733 · 2024-005F

PAYLOAD ACTIVE UNKNOWN

§ Identity

Operator
Country
US
Launch date
2024-01-07
Launch site
AFETR
Launch vehicle
Mass (kg)
RCS (m²)

Purposes: comms

External: N2YO · Heavens-Above · Gunter

§ Orbital elements

Epoch: 2026-05-24T10:41:55.399776Z

Period
94.27 min
Inclination
43.0006°
Eccentricity
0.0001399
Mean motion
15.27578856 rev/d
Perigee alt
482.1 km
Apogee alt
484.0 km
Semi-major
6,861.2 km
B*
7.8476e-5
RAAN
151.5754°
Arg perigee
274.6576°
Mean anomaly
85.4116°
Rev number
13,202

§ Raw data

STARLINK-311641 58733U 24005F   26144.44578009  .00001898  00000+0  78476-4 0  99922 58733  43.0006 151.5754 0001399 274.6576  85.4116 15.27578856132025

JSON: /api/v1/satellites/58733 · /tle

For live sub-satellite position, see the globe view (requires WebGL).

§ Visibility from observer

Set your observer location to see the next 7 days of passes ≥ 10°. The values pass through the URL so the page stays shareable.

No JS? Fill the form by hand. The geolocation button needs JavaScript.